Погода в Исаковской

Россия / Архангельская область     62°19′48″N   44°45′13″E
темп.,
°C
ветер,
м/с
пор.,
м/с
влажн.,
%
обл.,
%
осадки,
мм/ч
давл.,
гПа
погр.,
м
8 мая, сб
сб800:00+4юз399449 0.1 1009296
03:00+3юз28965 0.1 1011229
06:00+5юз26887 0.0 1012268
09:00+10ююз246344 0.0 1014966
12:00+14ю464190 0.0 10132336
15:00+15ю5738100 0.0 10132314
18:00+14ююв4849100 0.0 1012962
21:00+10юв41264100 0.0 1012453
9 мая, вс
вс900:00+9юв41370100 0.1 1010531
03:00+9вюв41368100 0.1 1008564
06:00+8юв51278100 0.1 1006598
09:00+9юв41289100 0.7 1005769
12:00+10ююв41192100 3.4 10051021
15:00+11ююв4990100 4.4 1006639
18:00+8зсз4795100 1.9 1008589
21:00+6сз4994100 6.4 1011759
10 мая, пн
пн1000:00+4сз41089100 0.4 1014693
03:00+3зсз399413 0.4 1018351
06:00+4зсз38824 0.0 1021306
09:00+8з35624 0.0 1022886
12:00+12з36395 0.0 10231819
15:00+14зюз473595 0.0 10242459
18:00+13юз3647100 0.0 1024934
21:00+7ююз26705 0.0 1026100
11 мая, вт
вт1100:00+6ююз2980100 0.0 1026200
03:00+8ююз3880100 0.0 1026449
06:00+8ю3892100 0.4 1026371
09:00+10ююз31091100 1.0 1025509
12:00+18юз5861100 0.1 10241149
15:00+20зюз61258100 0.1 10241519
18:00+19зюз49627 0.0 10241001
21:00+13зюз278551 0.0 1025109
12 мая, ср
ср1200:00+11зюз279487 0.0 1026146
03:00+10юз289484 0.0 1027164
06:00+13юз2784100 0.0 1028227
09:00+19зюз365887 0.0 1027740
12:00+22зюз474471 0.0 10271455
15:00+23зюз47395 0.0 10261777
18:00+22зюз37495 0.0 1026486
21:00+16зюз247138 0.0 102756